カタログに戻る

STARLINK-34374

運用中通信VLEO
NORAD 64308·PAYLOAD·🇺🇸 United States

打ち上げ Jun 8, 2025 から Vandenberg Space Force Base

Loading…

次のパス (今後24時間)

TLE

最新Source: CelesTrak SupGP

元期: Sep 15, 2026, 02:20 UTC

1 64308C 25123T   26258.09770833 -.00048652  00000+0 -16931-2 0  2580
2 64308  69.9998  75.1973 0002902 272.4954  45.0564 15.29592958    11

AllMySatでSTARLINK-34374をリアルタイム追跡

Download on the App Store